Date String (YYYY-MM-DD hh:mm:ss) UTC,Instrument flags,absolute air pressure of the measurement (hPa),sample flow rate (lpm),inlet stack bypass flow (lpm),air temperature of the measurement (°C),ambient temperature measured by the external sensor (°C),aerosol sample conditioner tube jacket temperature (°C),OPC LED temperature (°C),internal box temperature (°C),relative humidity of the measurement (%),span deviation,mass concentration of particles derived from Lorenz-Mie calculation of OPC scattering (μg/m³),mass concentration of particles derived from Lorenz-Mie calculation of OPC scattering (μg/m³),mass concentration of particles derived from Lorenz-Mie calculation of OPC scattering (μg/m³)
DateTimeUTC,F1_M11,P_M11,Q1_M11,Q2_M11,T1_M11,T2_M11,T3_M11,T4_M11,T5_M11,U1_M11,ZSPAN_M11,X2_M11,X0_M11,X1_M11
2023-09-21 02:00:00,SystemResetWarning,0827.5,5.00,000.00,027.8,024.6,000.0,036.2,029.2,20.1,0000.0,0002.70,0008.11,0001.88
2023-09-21 02:01:00,SystemResetWarning,0827.5,5.00,000.00,027.8,024.9,000.0,036.2,029.2,20.1,0000.0,0002.74,0008.04,0001.88
2023-09-21 02:02:00,SystemResetWarning,0827.6,5.00,000.00,027.8,025.3,000.0,036.2,029.3,20.1,0000.0,0002.73,0007.92,0001.88
2023-09-21 02:03:00,SystemResetWarning,0827.5,4.99,000.00,027.8,025.6,000.0,036.2,029.4,20.1,0000.0,0002.73,0007.50,0001.86
2023-09-21 02:04:00,SystemResetWarning,0827.5,5.00,000.00,027.8,025.9,000.0,036.2,029.4,20.2,0000.0,0002.75,0007.05,0001.85
2023-09-21 02:05:00,SystemResetWarning,0827.6,5.00,000.00,027.8,026.1,000.0,036.2,029.5,20.5,0000.0,0002.75,0006.91,0001.86
2023-09-21 02:06:00,SystemResetWarning,0827.6,5.01,000.00,027.8,026.3,000.0,036.2,029.5,20.5,0000.0,0002.70,0006.89,0001.85
2023-09-21 02:07:00,SystemResetWarning,0827.7,5.00,000.00,027.9,026.5,000.0,036.2,029.6,20.5,0000.0,0002.70,0006.52,0001.84
2023-09-21 02:08:00,SystemResetWarning,0827.7,5.00,000.00,027.9,026.6,000.0,036.2,029.6,20.4,0000.0,0002.76,0006.21,0001.83
2023-09-21 02:09:00,SystemResetWarning,0827.7,4.99,000.00,027.9,026.7,000.0,036.2,029.7,20.2,0000.0,0002.80,0007.36,0001.84
2023-09-21 02:10:00,SystemResetWarning,0827.7,5.00,000.00,028.0,026.8,000.0,036.3,029.7,20.1,0000.0,0002.86,0007.44,0001.85
2023-09-21 02:11:00,SystemResetWarning,0827.7,5.00,000.00,028.0,026.9,000.0,036.3,029.8,20.2,0000.0,0002.82,0007.38,0001.85
2023-09-21 02:12:00,SystemResetWarning,0827.7,5.01,000.00,028.1,027.0,000.0,036.3,029.8,20.0,0000.0,0002.84,0007.69,0001.86
2023-09-21 02:13:00,SystemResetWarning,0827.8,5.00,000.00,028.1,027.1,000.0,036.3,029.9,19.8,0000.0,0002.87,0007.89,0001.88
2023-09-21 02:14:00,SystemResetWarning,0827.8,4.99,000.00,028.1,026.3,000.0,036.3,029.7,19.8,0000.0,0002.90,0007.94,0001.90
2023-09-21 02:15:00,SystemResetWarning,0827.7,5.00,000.00,028.0,024.7,000.0,036.3,029.3,19.8,0000.0,0002.92,0008.05,0001.91
2023-09-21 02:16:00,SystemResetWarning,0827.7,5.01,000.00,027.9,024.3,000.0,036.2,029.2,19.8,0000.0,0002.89,0008.03,0001.90
2023-09-21 02:17:00,SystemResetWarning,0827.8,5.01,000.00,027.8,024.5,000.0,036.2,029.2,19.9,0000.0,0002.93,0008.07,0001.93
2023-09-21 02:18:00,SystemResetWarning,0827.8,5.00,000.00,027.8,024.8,000.0,036.2,029.1,19.9,0000.0,0002.94,0007.97,0001.94
2023-09-21 02:19:00,SystemResetWarning,0827.8,5.00,000.00,027.8,025.2,000.0,036.2,029.2,19.9,0000.0,0002.92,0008.38,0001.94
2023-09-21 02:20:00,SystemResetWarning,0827.8,5.00,000.00,027.8,025.5,000.0,036.2,029.3,19.9,0000.0,0002.89,0007.92,0001.95
2023-09-21 02:21:00,SystemResetWarning,0827.7,4.99,000.00,027.8,025.8,000.0,036.2,029.4,20.1,0000.0,0002.88,0008.83,0001.94
2023-09-21 02:22:00,SystemResetWarning,0827.8,4.99,000.00,027.8,026.0,000.0,036.2,029.4,20.1,0000.0,0002.89,0009.11,0001.94
2023-09-21 02:23:00,SystemResetWarning,0827.8,5.00,000.00,027.8,026.2,000.0,036.2,029.4,19.8,0000.0,0002.91,0009.22,0001.95
2023-09-21 02:24:00,SystemResetWarning,0827.8,5.00,000.00,027.9,026.4,000.0,036.2,029.5,19.6,0000.0,0002.90,0008.87,0001.96
2023-09-21 02:25:00,SystemResetWarning,0827.7,5.01,000.00,027.9,026.5,000.0,036.2,029.6,19.7,0000.0,0002.90,0008.87,0001.97
2023-09-21 02:26:00,SystemResetWarning,0827.8,5.01,000.00,027.9,026.7,000.0,036.3,029.6,19.5,0000.0,0003.00,0009.62,0002.01
2023-09-21 02:27:00,SystemResetWarning,0827.8,5.01,000.00,027.9,026.8,000.0,036.3,029.7,19.4,0000.0,0003.06,0009.98,0002.03
2023-09-21 02:28:00,SystemResetWarning,0827.8,5.00,000.00,028.0,026.8,000.0,036.3,029.8,19.5,0000.0,0003.10,0010.06,0002.03
2023-09-21 02:29:00,SystemResetWarning,0827.8,4.99,000.00,028.0,026.9,000.0,036.3,029.8,19.6,0000.0,0003.13,0009.84,0002.04
2023-09-21 02:30:00,SystemResetWarning,0827.8,5.00,000.00,028.1,027.0,000.0,036.3,029.8,19.4,0000.0,0003.16,0009.56,0002.07
2023-09-21 02:31:00,SystemResetWarning,0827.8,4.99,000.00,028.1,027.1,000.0,036.3,029.9,19.5,0000.0,0003.19,0009.11,0002.09
2023-09-21 02:32:00,SystemResetWarning,0827.8,5.01,000.00,028.1,027.0,000.0,036.4,029.9,19.5,0000.0,0003.23,0008.25,0002.11
2023-09-21 02:33:00,SystemResetWarning,0827.8,4.99,000.00,028.1,025.6,000.0,036.3,029.5,19.3,0000.0,0003.22,0007.97,0002.12
2023-09-21 02:34:00,SystemResetWarning,0827.7,5.00,000.00,027.9,024.4,000.0,036.3,029.1,19.3,0000.0,0003.23,0007.67,0002.12
2023-09-21 02:35:00,SystemResetWarning,0827.7,5.01,000.00,027.9,024.3,000.0,036.2,029.1,19.5,0000.0,0003.23,0007.91,0002.13
2023-09-21 02:36:00,SystemResetWarning,0827.7,5.01,000.00,027.8,024.5,000.0,036.2,029.1,19.5,0000.0,0003.23,0008.98,0002.13
2023-09-21 02:37:00,SystemResetWarning,0827.7,5.01,000.00,027.8,024.9,000.0,036.2,029.1,19.6,0000.0,0003.18,0008.89,0002.10
2023-09-21 02:38:00,SystemResetWarning,0827.7,4.99,000.00,027.8,025.2,000.0,036.2,029.2,20.0,0000.0,0003.16,0008.57,0002.09
2023-09-21 02:39:00,SystemResetWarning,0827.7,5.01,000.00,027.8,025.5,000.0,036.2,029.3,19.9,0000.0,0003.17,0008.69,0002.10
2023-09-21 02:40:00,SystemResetWarning,0827.7,5.00,000.00,027.8,025.8,000.0,036.2,029.3,20.1,0000.0,0003.15,0008.67,0002.11
2023-09-21 02:41:00,SystemResetWarning,0827.8,5.00,000.00,027.8,026.0,000.0,036.2,029.4,20.1,0000.0,0003.13,0008.53,0002.11
2023-09-21 02:42:00,SystemResetWarning,0827.8,5.00,000.00,027.8,026.2,000.0,036.2,029.5,20.3,0000.0,0003.14,0008.83,0002.11
2023-09-21 02:43:00,SystemResetWarning,0827.8,5.00,000.00,027.8,026.4,000.0,036.2,029.5,20.0,0000.0,0003.12,0009.06,0002.11
2023-09-21 02:44:00,SystemResetWarning,0827.7,5.00,000.00,027.9,026.5,000.0,036.2,029.5,19.8,0000.0,0003.17,0009.35,0002.12
2023-09-21 02:45:00,SystemResetWarning,0827.8,4.99,000.00,027.9,026.6,000.0,036.2,029.6,19.8,0000.0,0003.16,0009.93,0002.12
2023-09-21 02:46:00,SystemResetWarning,0827.7,4.99,000.00,027.9,026.7,000.0,036.3,029.6,19.7,0000.0,0003.17,0010.54,0002.12
2023-09-21 02:47:00,SystemResetWarning,0827.8,4.99,000.00,028.0,026.8,000.0,036.3,029.7,19.7,0000.0,0003.15,0010.81,0002.13
2023-09-21 02:48:00,SystemResetWarning,0827.7,5.01,000.00,028.0,026.9,000.0,036.3,029.7,19.7,0000.0,0003.20,0010.35,0002.15
2023-09-21 02:49:00,SystemResetWarning,0827.7,5.00,000.00,028.0,026.9,000.0,036.3,029.7,19.6,0000.0,0003.25,0011.25,0002.17
2023-09-21 02:50:00,SystemResetWarning,0827.7,4.99,000.00,028.1,027.0,000.0,036.3,029.8,19.8,0000.0,0003.25,0011.19,0002.18
2023-09-21 02:51:00,SystemResetWarning,0827.7,4.99,000.00,028.1,027.1,000.0,036.4,029.9,19.5,0000.0,0003.26,0011.68,0002.23
2023-09-21 02:52:00,SystemResetWarning,0827.7,5.00,000.00,028.1,027.1,000.0,036.4,029.9,19.3,0000.0,0003.28,0012.11,0002.25
2023-09-21 02:53:00,SystemResetWarning,0827.7,4.99,000.00,028.1,026.2,000.0,036.4,029.6,19.5,0000.0,0003.25,0012.75,0002.25
2023-09-21 02:54:00,SystemResetWarning,0827.7,5.00,000.00,028.0,024.5,000.0,036.3,029.2,19.6,0000.0,0003.22,0012.76,0002.27
2023-09-21 02:55:00,SystemResetWarning,0827.6,5.01,000.00,027.9,024.2,000.0,036.3,029.2,19.7,0000.0,0003.21,0012.92,0002.30
2023-09-21 02:56:00,SystemResetWarning,0827.7,5.01,000.00,027.8,024.4,000.0,036.3,029.1,20.1,0000.0,0003.23,0012.53,0002.30
2023-09-21 02:57:00,SystemResetWarning,0827.7,4.99,000.00,027.8,024.7,000.0,036.3,029.1,20.2,0000.0,0003.21,0012.31,0002.30
2023-09-21 02:58:00,SystemResetWarning,0827.8,5.00,000.00,027.7,025.1,000.0,036.2,029.2,20.2,0000.0,0003.21,0012.22,0002.30
2023-09-21 02:59:00,SystemResetWarning,0827.7,5.00,000.00,027.7,025.4,000.0,036.2,029.2,20.4,0000.0,0003.19,0012.31,0002.31
